Juwata Airport


Codes: WALR/TRK
Name: Juwata Airport
City: Tarakan Island
Country: Indonesia
Elevation: 23 ft.
Website:
Wikipedia:

Photos at Juwata Airport


   Photos courtesy of SpottingLog. You can add your own sightings and photos by signing up for a free trial today.



No photos found.

Weather at Juwata Airport


Time (UTC)DescriptionTempratureWindCloud coverageVisibilityPressureHumidity
16-Jun-2024 00:00Light Rain26°C4 mph, W20%10000m1010hPa100%
16-Jun-2024 03:00Light Rain26°C4 mph, SW47%10000m1010hPa95%
16-Jun-2024 06:00Broken Clouds27°C7 mph, S73%10000m1009hPa87%
16-Jun-2024 09:00Scattered Clouds29°C7 mph, SE49%10000m1008hPa73%
16-Jun-2024 12:00Broken Clouds29°C9 mph, E55%10000m1009hPa75%
16-Jun-2024 15:00Light Rain29°C9 mph, SE13%10000m1010hPa76%
16-Jun-2024 18:00Light Rain27°C4 mph, SE34%10000m1009hPa82%
16-Jun-2024 21:00Light Rain27°C4 mph, W67%10000m1009hPa85%
17-Jun-2024 00:00Light Rain26°C4 mph, NW84%10000m1011hPa86%
17-Jun-2024 03:00Light Rain27°C0 mph, SE100%10000m1010hPa81%
17-Jun-2024 06:00Light Rain28°C4 mph, SE92%10000m1008hPa81%
17-Jun-2024 09:00Broken Clouds29°C7 mph, SE81%10000m1008hPa70%
17-Jun-2024 12:00Overcast Clouds29°C7 mph, E90%10000m1010hPa72%
17-Jun-2024 15:00Overcast Clouds28°C4 mph, N100%10000m1011hPa73%
17-Jun-2024 18:00Light Rain27°C7 mph, NW98%10000m1009hPa81%
17-Jun-2024 21:00Light Rain26°C7 mph, NW100%10000m1009hPa84%
18-Jun-2024 00:00Overcast Clouds26°C4 mph, W100%10000m1010hPa83%
18-Jun-2024 03:00Overcast Clouds28°C2 mph, SW96%10000m1009hPa76%
18-Jun-2024 06:00Light Rain29°C4 mph, SE92%10000m1007hPa68%
18-Jun-2024 09:00Light Rain29°C9 mph, E11%10000m1006hPa68%
18-Jun-2024 12:00Few Clouds29°C9 mph, E13%10000m1008hPa71%
18-Jun-2024 15:00Moderate Rain27°C7 mph, NE27%4075m1010hPa80%
18-Jun-2024 18:00Moderate Rain27°C4 mph, N62%5089m1009hPa81%
18-Jun-2024 21:00Light Rain26°C4 mph, N100%10000m1009hPa83%
19-Jun-2024 00:00Light Rain26°C2 mph, NW100%10000m1010hPa85%
19-Jun-2024 03:00Light Rain25°C4 mph, S100%10000m1010hPa87%
19-Jun-2024 06:00Light Rain27°C4 mph, S100%10000m1007hPa79%
19-Jun-2024 09:00Broken Clouds28°C4 mph, S71%10000m1007hPa74%
19-Jun-2024 12:00Broken Clouds28°C7 mph, SE82%10000m1008hPa74%
19-Jun-2024 15:00Light Rain28°C4 mph, S96%10000m1009hPa75%
19-Jun-2024 18:00Moderate Rain27°C4 mph, SW98%10000m1008hPa79%
19-Jun-2024 21:00Light Rain26°C7 mph, W99%10000m1008hPa83%
20-Jun-2024 00:00Light Rain26°C7 mph, W99%10000m1010hPa84%
20-Jun-2024 03:00Broken Clouds27°C4 mph, S74%10000m1009hPa78%
20-Jun-2024 06:00Light Rain29°C7 mph, E76%10000m1007hPa69%
20-Jun-2024 09:00Light Rain29°C9 mph, SE46%10000m1006hPa74%
20-Jun-2024 12:00Moderate Rain28°C11 mph, SE64%10000m1009hPa79%
20-Jun-2024 15:00Moderate Rain28°C7 mph, SE100%8268m1009hPa78%
20-Jun-2024 18:00Moderate Rain27°C4 mph, W100%4595m1008hPa79%
20-Jun-2024 21:00Moderate Rain26°C4 mph, S100%7760m1008hPa86%